ATLAS CENTAUR 2 DEB, 698

Orbit data source: Space-Track

ATLAS CENTAUR 2 DEB, 698 is space debris in LEO originally from a launch on Wed, 27 Nov 1963 UTC launched from the Air Force Eastern Test Range (AFETR). Debris objects in space refer to the collection of defunct objects orbiting the Earth. Examples of debris include non-operational satellites, rocket bodies, and fragments generated from explosions, collisions, or faulty payload assembly.

Loading next visibility...
Identifier
698, 1963-047D
Orbit
LEO
Last TLE update
16 hours ago
Origin
Manufacturer
GD/Convair
Mission
Spacecraft
Bus & Motor
CENTAUR PART, Unknown motor
Mass
Unknown
Launch date (UTC)
1963-11-27 (62 years ago)
Launch vehicle
Unknown
Launch site
Air Force Eastern Test Range (AFETR)
Object type
Payload
Rocket body
Debris
Shape & HBR
Unknown
Radar Cross Section
0.300 m², Medium (>0.1 m² and < 1m²)

Expand to show TLE details & history

TLE from 16 hours ago
0 ATLAS CENTAUR 2 DEB
1 00698U 63047D   25182.49626732  .00001144  00000-0  40563-3 0  9991
2 00698  29.9226  11.7059 0531315  90.5806 275.5653 13.73530195 30793
Epoch: 2025-07-01T11:54Z
TLE epoch observation values (Epoch: 2025-07-01T11:54:37.496Z)
Latitude
0.00001°
Longitude
-86.7412°
Altitude
968.191 km
Speed
7.378 km/s
True Right ascension
00h 46m 49s
True Declination
0° 00' 00"
Sunlit
Object was in daylight at epoch
Visualization orbit readout
Latitude
7.57988°
Longitude
76.36056°
Altitude
823.032 km
Speed
7.525 km/s
Apparent Right ascension
08h 55m 01s
Apparent Declination
-24° 40' 47"
Sunlit
Object is in daylight
Visualization observer readout
Local Sidereal Time
16:02:27
Azimuth
260.138° W
Elevation
-28.036°
Doppler factor
1
Orbital elements
Apogee altitude
1,382.211 km
Perigee altitude
599.177 km
Semi-major axis
7,368.831 km
Eccentricity
0.05313
Inclination
29.9226°
RAAN
11.7059°
Arg. of periapsis
90.5806°
True anomaly
Unknown
Mean anomaly
275.5653°
Eccentric anomaly
Unknown
Mean motion
3.43119 °/min
Orbital period
104.92 mins
BSTAR
0.00040563
Loading maneuver chart data...
Loading SW <> Apogee altitude chart data...

ATLAS CENTAUR 2 DEB Visibility forecast

Observer location: undefined°, undefined°

Span
Click to sort rows by Start time (UTC) header in descending order
Start Az.
Max El. time (UTC)
Max El. Az.
Max El.
End time (UTC)
End Az.
4 mins2025-07-02 16:04:03.584Z188.208° SSW2025-07-02 16:06:03.584Z162.899° S13.519°2025-07-02 16:08:03.584Z136.471° SSE
5 mins2025-07-02 17:54:03.584Z215.83° SW2025-07-02 17:56:03.584Z184.362° SSW20.196°2025-07-02 17:59:03.584Z132.983° SE
4 mins2025-07-02 19:45:03.584Z220.749° SW2025-07-02 19:47:03.584Z186.354° SSW18.199°2025-07-02 19:49:03.584Z153.864° SSE
|